GFSSW_sfc_temp_051.txt.gz
Temp
61 62 62 61 61 61 60 60 60 59 60 60 60 60 60 60 59 73 75 83 82 68 66 90 89 89 90 86 89 89 74 71 67 62 72 77 74 63 81 80 80 83 82 85 79
62 62 62 61 60 60 60 60 59 59 59 59 60 60 60 59 69 77 83 71 69 67 85 86 83 86 83 84 85 80 74 71 78 71 60 74 78 76 76 77 77 80 81 79 78
61 61 61 61 60 60 60 59 59 59 59 59 59 60 59 62 72 84 69 69 68 71 91 91 89 85 80 84 83 81 73 79 81 80 80 79 76 75 71 71 76 78 75 77 81
60 60 60 60 60 60 59 58 59 59 59 59 60 60 59 71 67 89 68 68 68 86 88 87 85 79 78 76 84 75 81 80 79 73 80 76 79 72 73 66 84 82 83 81 81
59 59 59 60 60 59 58 58 58 59 59 59 59 60 68 72 77 87 70 69 82 86 85 84 80 80 76 80 80 75 77 78 69 82 80 80 76 67 77 83 87 84 83 82 82
59 59 58 59 59 59 58 58 58 58 58 59 60 59 70 67 92 93 90 88 89 87 86 87 83 85 80 79 78 80 78 75 79 78 78 77 76 78 79 85 81 80 81 83 83
59 58 58 58 58 58 58 57 57 58 58 59 60 69 71 74 94 95 90 89 91 89 85 89 89 82 82 76 81 77 70 74 76 79 76 79 72 72 80 82 79 80 82 82 84
59 58 58 57 57 57 57 57 57 58 58 59 60 73 70 92 96 92 94 91 92 91 89 89 88 81 78 80 76 71 71 64 75 78 79 78 66 76 81 79 78 80 80 81 82
58 58 57 57 56 56 56 57 57 58 59 60 65 72 72 82 85 94 95 87 88 88 87 86 83 77 76 70 68 70 60 65 68 79 77 74 68 76 82 80 77 78 79 79 80
58 58 58 57 56 56 56 57 59 58 63 74 77 68 78 80 88 91 95 91 86 83 77 78 77 73 73 68 57 63 65 68 67 74 76 73 71 75 79 81 79 79 80 79 77
58 58 58 56 56 56 58 71 69 67 71 73 76 76 79 87 92 89 92 88 87 81 67 76 69 65 69 73 73 72 70 68 73 77 74 73 72 74 78 78 76 77 76 77 78
58 58 57 57 57 57 65 71 76 75 68 77 78 78 82 85 77 85 91 80 78 66 75 72 63 71 76 75 73 71 67 66 72 75 73 71 69 72 72 74 76 76 77 77 77
58 58 57 57 56 59 70 73 83 80 68 75 79 77 80 83 78 82 86 83 76 72 69 65 68 75 73 71 70 70 66 67 67 71 74 72 68 68 74 77 77 79 80 79 77
57 57 56 55 55 73 71 80 82 78 61 68 71 77 81 82 74 88 88 82 76 69 72 63 70 72 71 70 71 63 72 71 69 66 60 73 56 66 69 69 71 73 75 76 77
56 56 55 53 68 71 76 83 81 74 45 72 75 90 86 77 79 79 88 82 72 72 70 66 71 71 69 69 72 65 72 71 71 68 62 67 63 62 70 66 68 71 73 75 76
56 55 55 60 65 75 79 79 74 57 46 65 75 72 73 76 76 80 80 83 80 73 74 65 77 75 73 72 73 73 70 70 70 67 55 64 64 63 67 71 71 72 74 74 75
54 54 57 74 69 77 76 72 56 50 69 64 67 72 71 69 71 73 71 70 67 60 61 69 70 73 75 69 72 72 66 53 51 53 51 65 61 65 70 72 75 71 72 74 75
53 53 58 71 77 75 72 62 49 61 64 71 71 70 66 71 70 71 70 67 74 71 65 60 56 69 74 71 67 68 67 55 44 47 54 63 56 65 72 73 75 75 74 74 74
52 60 64 68 71 72 66 53 55 64 71 67 69 64 65 69 69 68 67 68 72 73 61 60 60 72 71 73 72 66 61 69 58 57 50 60 66 67 71 70 72 73 73 72 73
63 64 65 72 70 68 60 54 64 72 72 71 61 66 61 65 63 65 66 72 70 72 75 69 58 68 69 72 71 68 72 57 59 43 44 58 60 62 64 67 69 71 71 72 74
64 60 73 74 69 62 55 60 67 74 73 67 66 65 66 64 66 64 66 69 73 71 73 73 66 62 67 65 66 64 62 64 63 59 47 47 58 71 69 70 69 72 73 73 74
61 54 69 72 58 60 58 66 66 72 73 69 70 69 67 68 64 65 65 70 74 74 67 71 66 58 62 70 72 70 66 65 53 52 55 52 56 72 72 73 73 73 74 75 76
57 61 63 69 53 55 64 66 71 69 70 68 67 72 72 67 61 66 67 66 71 70 68 69 62 53 56 63 67 63 67 67 65 59 53 46 55 72 71 70 73 73 75 75 74
63 51 52 59 66 62 60 63 63 71 70 72 71 73 68 65 70 64 65 64 66 70 53 62 64 59 52 59 66 59 64 66 63 51 53 57 62 66 68 69 71 72 74 73 71
62 61 61 52 60 59 65 65 63 63 69 71 68 68 67 61 64 63 67 63 64 55 65 67 58 63 64 63 63 63 63 64 60 61 54 60 63 70 72 71 72 73 73 70 68
59 64 66 63 64 61 58 62 64 67 68 65 65 69 71 65 66 63 67 65 63 65 65 67 57 59 54 61 60 58 63 63 64 64 65 65 64 75 76 74 72 71 70 68 67
66 70 65 58 61 61 62 65 66 70 67 70 71 70 67 68 71 72 74 73 72 65 63 62 58 53 48 55 55 44 56 62 64 67 65 58 67 71 68 68 69 70 69 67 67

GFSSW_sfc_temp_054.txt.gz
Temp
62 62 62 62 61 60 60 60 59 59 60 60 60 60 60 60 59 70 69 80 82 70 69 85 88 86 87 82 86 87 70 66 70 68 65 64 58 63 72 71 77 77 68 67 76
62 62 62 61 60 60 60 60 59 59 59 59 59 60 59 59 63 70 80 71 71 69 82 82 82 85 80 80 82 77 69 69 78 70 64 61 59 58 65 57 68 69 71 71 72
62 61 61 61 61 60 60 59 59 59 59 59 59 60 59 61 68 81 70 70 69 73 84 86 88 85 77 81 80 78 69 77 72 71 70 63 59 60 75 67 76 70 71 73 73
61 61 61 61 61 60 59 58 59 59 59 59 60 60 59 66 63 86 70 69 68 85 84 84 84 78 74 74 81 73 80 78 71 72 69 67 64 72 75 75 78 77 77 77 72
60 60 60 60 60 59 59 58 58 59 59 59 60 60 66 69 74 86 70 69 80 82 82 82 79 78 73 78 79 75 77 73 74 75 73 78 67 66 69 76 82 79 79 78 77
59 59 59 59 59 59 58 58 58 58 58 59 60 59 66 63 93 94 92 87 89 84 83 84 82 84 78 77 77 78 77 72 73 72 72 71 66 69 72 77 80 80 78 79 75
59 59 59 59 59 58 58 58 57 58 58 59 60 67 67 69 92 96 92 90 92 89 83 88 88 82 81 75 81 78 70 73 75 72 70 70 65 67 79 79 77 79 80 80 82
60 59 58 58 57 57 57 57 57 58 59 59 60 68 65 90 94 91 93 91 93 92 89 90 89 82 77 80 77 70 69 62 74 76 75 71 56 73 79 77 75 77 78 79 80
59 59 58 57 57 57 57 57 57 58 59 60 64 68 68 85 85 91 93 87 89 89 89 88 83 75 77 68 62 66 53 61 67 78 74 70 64 74 79 77 75 76 77 78 78
59 59 58 57 57 56 56 57 61 59 62 72 74 67 75 78 89 91 95 91 85 83 78 78 75 69 70 65 53 57 59 64 64 72 74 68 68 74 77 76 74 74 75 76 76
59 59 58 57 57 57 58 67 66 62 68 70 74 73 81 88 91 87 91 88 86 80 68 74 65 60 64 68 70 69 66 65 68 75 71 70 69 71 76 77 72 75 75 75 76
58 58 58 57 57 57 61 67 75 75 64 76 76 78 84 85 77 84 92 79 77 68 69 66 59 70 72 72 70 70 66 66 71 75 71 70 68 73 75 76 76 76 75 75 75
58 58 58 57 57 58 65 70 82 80 65 73 78 77 79 83 76 79 86 81 72 65 68 58 56 67 69 70 67 68 62 61 65 71 73 70 66 68 73 77 77 76 77 76 74
57 58 57 56 54 68 68 78 80 78 57 67 72 78 81 82 73 87 90 81 75 64 65 61 68 65 67 68 70 58 68 65 66 62 56 67 49 59 69 70 73 74 75 75 76
57 57 56 53 62 70 77 84 82 72 42 72 73 89 83 75 79 79 89 82 70 71 71 62 63 64 66 69 72 60 68 67 69 65 59 56 52 57 66 66 68 72 74 75 76
56 56 56 59 62 68 74 77 74 53 44 66 75 72 72 75 76 81 79 83 82 73 73 69 72 69 69 72 74 72 66 68 68 64 46 54 53 56 60 66 69 72 73 74 74
56 55 56 71 66 76 73 68 52 46 70 65 67 71 70 69 71 73 71 69 65 59 60 65 67 75 75 69 73 70 63 50 38 41 47 66 57 58 62 65 70 71 71 73 73
54 54 57 66 73 74 69 55 45 60 63 73 71 70 64 70 70 70 68 64 71 69 62 57 54 68 74 69 56 60 64 46 39 37 49 59 55 61 72 75 77 75 74 73 72
53 57 61 64 66 69 59 46 50 62 70 68 70 63 63 68 69 68 66 66 70 71 60 54 56 64 74 75 67 65 59 67 57 58 48 56 64 67 71 70 73 72 72 71 71
58 59 60 68 68 63 52 49 59 69 73 72 61 66 60 64 64 65 65 71 70 75 69 58 46 61 71 73 73 68 72 56 57 41 40 53 57 56 62 65 69 70 70 70 72
59 55 67 69 67 58 48 53 60 73 75 68 65 64 65 64 66 64 65 71 75 72 74 67 52 61 68 64 64 63 60 63 62 57 43 41 52 68 67 69 68 70 71 71 71
57 50 67 68 52 56 52 60 62 68 75 71 70 69 67 67 65 64 63 69 75 75 66 71 65 56 61 72 73 69 64 64 49 50 54 48 51 72 72 71 71 72 73 73 73
54 57 64 65 49 51 58 61 66 67 70 69 66 70 72 66 62 66 68 70 74 71 67 70 61 49 55 64 68 63 66 66 64 60 50 42 51 72 72 71 73 71 73 73 72
58 48 51 55 63 57 55 58 60 70 70 72 70 72 69 65 70 64 66 66 69 71 55 64 63 57 49 57 64 59 62 66 63 47 50 51 58 66 68 68 71 71 73 73 72
58 57 59 45 52 58 61 61 60 61 70 72 68 68 67 60 63 63 68 63 66 56 65 66 56 61 63 65 65 62 62 64 61 61 51 56 59 67 71 69 71 73 72 72 71
56 60 61 58 58 56 56 59 61 65 66 64 64 69 69 63 65 62 67 64 62 64 64 67 55 58 55 62 62 57 62 62 63 63 63 63 62 73 74 74 71 71 72 70 69
63 68 61 54 56 55 56 60 62 68 69 71 70 68 65 69 72 71 74 73 71 64 61 62 56 52 45 55 53 42 55 59 62 65 64 56 64 72 69 69 69 69 71 69 69

GFSSW_sfc_temp_060.txt.gz
Temp
61 61 61 61 60 60 60 59 59 59 59 60 60 59 60 59 58 59 55 65 64 67 68 71 71 68 66 62 64 61 49 46 51 53 54 60 58 62 64 64 64 64 63 65 63
62 62 62 61 60 60 59 59 59 59 59 59 59 59 59 58 55 56 66 67 66 67 70 68 67 68 61 60 61 55 48 50 60 58 54 57 59 59 59 60 60 62 64 64 64
62 61 61 61 60 60 59 59 58 59 59 59 59 59 58 57 56 68 69 67 68 69 72 71 71 67 59 60 59 54 53 60 60 59 59 56 56 59 58 52 60 61 61 62 63
61 61 60 60 60 59 59 58 58 59 59 59 59 59 58 54 55 70 69 67 68 72 71 69 66 60 58 58 61 56 64 64 62 61 59 55 58 57 55 61 68 65 63 63 62
60 60 60 60 60 59 58 58 58 58 58 59 59 59 56 55 60 75 68 68 71 73 70 68 64 62 58 62 63 60 61 63 63 64 63 64 59 59 57 62 66 66 64 61 61
59 59 59 59 59 59 58 57 57 57 57 58 59 59 54 51 75 75 74 70 74 72 69 69 67 67 65 64 61 62 62 61 60 62 64 61 59 61 57 62 65 64 60 62 63
59 59 59 59 59 58 58 57 57 57 57 58 59 59 55 58 71 71 74 75 74 74 71 73 72 67 66 63 66 64 57 60 60 63 60 61 57 56 60 62 63 66 62 63 63
60 59 58 57 57 57 57 56 56 57 57 58 59 56 51 72 68 72 73 75 78 76 75 76 74 68 63 65 64 58 57 50 59 65 66 63 49 60 60 61 59 62 63 63 63
59 58 58 57 56 56 56 56 56 57 58 58 53 54 53 73 72 76 75 75 77 76 75 82 71 62 64 56 53 55 47 50 54 65 63 60 52 60 59 61 60 58 60 63 61
59 58 58 57 56 55 55 56 57 56 59 62 63 51 61 68 75 77 76 78 73 70 69 67 62 58 57 52 45 49 51 54 52 59 58 55 54 59 61 63 60 59 58 60 59
58 58 58 57 56 55 53 53 55 53 55 56 59 59 67 75 79 74 78 74 72 66 56 62 55 51 54 61 60 59 56 52 56 60 56 54 54 57 60 59 59 60 59 60 60
58 58 57 57 57 56 51 50 58 59 50 62 64 64 70 71 65 71 77 67 63 56 59 56 48 61 63 61 57 56 53 53 59 60 57 53 53 57 59 62 63 61 61 63 62
57 57 57 57 56 52 50 55 64 63 50 59 65 64 66 69 64 67 72 67 60 57 58 51 56 63 61 57 56 55 52 52 53 56 57 54 51 55 61 61 61 63 63 63 64
56 57 56 55 52 53 52 62 63 60 43 53 60 66 69 70 63 74 75 69 61 57 55 54 61 60 55 55 57 48 59 59 56 51 45 54 39 49 57 59 59 60 60 60 62
56 56 55 56 51 53 61 62 61 58 30 60 63 75 70 65 66 67 74 68 59 58 57 54 55 56 55 57 61 54 60 59 56 49 46 48 43 48 57 55 59 61 60 61 64
55 56 55 54 51 54 59 60 59 44 32 56 65 61 61 63 64 68 68 69 66 59 58 57 61 61 59 62 62 64 57 53 50 47 39 48 45 45 50 59 60 60 63 62 63
55 55 55 60 53 58 58 55 41 37 58 56 57 61 59 57 60 62 60 58 53 48 47 55 56 61 63 58 60 57 49 36 34 34 36 51 45 49 55 59 61 60 60 61 61
54 54 55 59 55 57 55 47 36 47 50 62 60 59 54 58 58 59 56 52 55 55 48 45 44 56 62 57 52 52 49 36 32 31 38 50 42 51 60 62 62 62 59 60 60
54 53 53 56 56 57 50 41 39 48 59 57 58 52 52 57 58 56 53 52 57 57 48 45 47 57 61 61 59 51 45 51 43 41 36 42 49 56 59 58 58 58 58 56 58
51 51 52 57 59 55 46 42 47 58 60 59 50 54 48 53 52 53 52 58 58 61 59 53 44 55 59 62 61 56 57 44 41 34 32 39 41 44 52 54 54 55 55 56 57
50 46 55 60 58 48 41 44 51 60 60 55 53 53 54 52 54 51 54 59 61 60 59 53 49 49 55 53 53 52 49 49 48 40 33 29 39 52 54 57 55 55 58 58 58
48 42 56 60 44 40 43 50 52 56 60 57 56 55 54 54 52 52 53 58 61 61 56 55 48 41 50 57 58 54 52 50 36 40 38 33 39 56 57 58 58 58 60 60 62
45 47 55 57 38 39 46 50 53 54 55 55 55 58 59 54 48 53 54 58 60 61 55 55 46 37 43 51 55 50 54 54 48 41 39 29 37 57 57 57 58 56 58 60 60
46 40 46 50 50 45 43 45 46 56 54 56 56 57 55 52 56 52 52 58 57 58 54 56 49 44 37 45 50 47 52 53 48 33 38 38 45 53 55 56 57 57 57 58 60
46 46 49 41 42 48 47 47 46 47 55 58 55 55 52 49 50 51 53 54 57 54 56 54 46 49 51 52 52 50 51 51 49 47 40 45 46 53 55 56 57 58 58 56 57
44 46 50 44 49 45 46 45 46 50 53 53 52 56 55 52 53 50 53 52 52 53 52 54 45 45 43 48 49 46 50 50 50 50 49 49 48 55 55 54 57 59 58 57 56
48 51 48 48 46 43 44 47 49 54 56 59 57 55 52 56 59 58 60 59 58 53 49 49 45 37 36 42 43 35 45 49 51 51 51 44 50 52 52 55 53 53 58 55 55

GFSSW_sfc_temp_066.txt.gz
Temp
62 61 61 61 60 60 60 59 59 59 59 59 59 59 59 59 58 55 53 64 60 65 66 66 64 63 61 56 56 53 47 40 46 47 52 55 55 57 59 58 59 59 59 63 65
62 62 62 61 60 60 59 59 59 59 59 59 59 59 59 58 52 54 65 66 66 66 66 64 61 63 56 54 55 51 43 47 56 56 52 54 56 54 55 56 56 59 63 64 64
62 62 61 61 60 60 59 59 58 59 59 59 59 59 58 56 55 65 68 66 65 65 65 65 65 62 54 53 53 49 49 54 57 56 57 55 52 54 52 49 55 58 60 62 63
61 61 61 61 60 60 59 58 58 59 59 59 59 59 58 52 51 63 67 66 66 65 65 64 61 56 52 51 55 49 56 57 54 57 57 54 53 53 49 53 61 62 62 61 61
59 60 60 60 60 59 58 58 58 58 58 59 59 59 55 52 58 68 68 66 65 66 63 63 60 58 53 54 55 52 56 56 57 58 57 58 52 53 52 56 61 63 62 60 61
59 59 59 59 59 59 58 58 57 57 58 58 59 58 51 48 68 69 69 67 67 65 62 63 63 63 57 56 54 56 55 54 54 56 56 55 53 53 52 60 61 60 58 60 60
59 59 58 59 59 58 58 57 57 57 57 58 58 57 50 55 64 65 66 68 69 69 64 66 66 61 59 57 59 56 53 56 54 53 54 55 49 50 55 58 59 59 61 59 60
58 58 57 57 57 57 57 56 56 57 57 58 58 53 48 66 62 66 64 68 69 69 69 70 67 62 58 59 58 53 51 45 54 57 58 55 46 52 56 57 55 58 58 59 60
57 57 57 57 56 56 56 56 56 57 57 57 51 50 50 67 64 70 70 69 70 69 67 75 65 57 58 51 47 48 41 43 51 57 57 53 47 53 56 57 54 57 57 58 59
57 57 57 57 56 55 55 56 57 55 56 58 59 49 57 62 67 70 68 70 67 65 63 61 56 51 50 47 40 43 44 47 47 54 54 49 48 51 55 56 55 55 56 57 59
57 57 57 56 56 55 54 53 52 50 53 54 55 54 59 67 69 66 68 68 65 63 52 55 50 45 49 51 53 53 48 46 49 55 52 51 51 52 54 53 53 53 54 55 58
57 56 56 56 56 56 51 48 53 53 46 56 58 58 63 65 59 64 70 63 59 53 53 51 46 54 56 54 53 51 49 47 52 54 52 47 49 52 54 55 56 55 54 56 57
56 56 56 56 56 54 50 53 60 57 45 53 58 57 59 63 57 59 66 62 56 52 51 48 52 57 56 52 50 49 47 45 48 50 49 48 46 49 53 56 57 58 59 58 58
56 56 55 55 52 53 50 57 57 56 40 49 54 58 61 61 56 66 67 64 55 54 52 50 55 55 52 51 52 44 54 51 48 45 40 47 38 46 51 54 55 57 56 57 58
56 55 55 55 51 51 56 59 57 54 29 55 55 66 62 60 61 61 67 62 54 54 53 51 50 51 50 52 54 50 54 51 50 45 40 41 39 46 50 50 54 56 57 58 59
55 55 55 53 53 55 57 57 55 41 30 50 58 55 54 56 58 59 61 63 60 54 51 52 54 55 55 56 56 56 51 49 45 43 36 41 41 41 45 53 57 59 59 59 59
55 55 54 58 52 55 58 52 40 33 52 50 52 55 52 51 54 56 54 52 49 44 42 48 50 54 57 51 53 52 44 35 33 32 34 44 41 44 51 55 56 57 59 59 59
54 54 53 55 59 54 56 46 33 42 45 55 55 52 49 52 52 53 51 48 49 49 42 42 40 52 56 54 50 47 46 35 31 31 35 44 38 47 55 56 56 57 59 58 56
53 50 50 55 58 57 48 36 38 43 52 52 53 47 47 51 51 51 48 47 52 53 46 41 43 51 54 55 54 46 42 48 38 35 32 37 44 53 52 51 52 52 52 53 56
47 47 49 55 57 51 43 40 47 52 55 53 45 49 43 46 48 48 47 52 52 55 54 49 41 50 53 55 53 50 52 40 37 32 30 34 36 41 50 53 51 50 51 51 54
45 41 49 54 54 46 38 40 47 55 56 50 46 45 47 46 48 45 47 52 55 53 54 49 45 44 50 49 48 47 44 43 43 36 32 28 36 47 50 53 53 53 53 51 51
43 35 49 54 41 44 41 44 49 52 56 53 50 49 48 49 46 46 48 53 56 54 50 50 45 38 46 50 52 49 47 45 35 36 34 31 34 51 53 52 52 54 54 52 52
39 41 52 52 35 39 46 47 48 50 50 50 48 51 50 47 43 47 49 55 55 54 50 51 42 35 41 46 48 46 48 47 42 37 35 28 35 52 52 53 54 54 54 54 52
40 34 43 45 48 43 43 43 43 51 49 51 49 50 48 47 50 46 48 53 54 55 51 54 44 42 38 42 46 41 46 46 45 32 36 35 41 49 52 52 53 54 52 53 52
40 38 45 36 38 42 45 45 43 43 50 50 47 48 48 43 45 46 50 50 52 51 50 51 43 43 44 46 47 47 47 45 43 42 38 42 41 48 51 51 53 53 52 51 52
34 39 44 39 45 41 44 43 43 45 46 45 44 48 48 45 48 46 50 48 50 49 48 48 42 42 39 42 44 41 46 45 46 45 43 43 43 51 51 50 51 51 52 51 51
40 41 39 43 43 39 39 44 44 47 49 50 50 49 47 50 56 57 55 54 51 48 46 45 41 36 36 39 39 35 41 46 46 46 46 40 46 49 47 47 43 44 47 51 50